TimeCDT,TemperatureF,Dew PointF,Humidity,Sea Level PressureIn,VisibilityMPH,Wind Direction,Wind SpeedMPH,Gust SpeedMPH,PrecipitationIn,Events,Conditions,WindDirDegrees,DateUTC
12:53 AM,39.9,34.0,79,29.88,8.0,South,11.5,21.9,0.01,Rain,Light Rain,180,2014-03-27 05:53:00
1:53 AM,37.9,36.0,93,29.86,6.0,South,12.7,-,0.04,Rain,Light Rain,170,2014-03-27 06:53:00
2:50 AM,37.4,37.4,100,29.81,6.0,South,12.7,-,0.02,Rain,Light Rain,170,2014-03-27 07:50:00
2:53 AM,37.9,37.9,100,29.82,6.0,South,12.7,-,0.02,Rain,Light Rain,170,2014-03-27 07:53:00
3:32 AM,37.9,36.0,93,29.79,5.0,South,13.8,-,0.03,Rain,Light Rain,170,2014-03-27 08:32:00
3:53 AM,37.9,36.0,93,29.79,4.0,SSE,12.7,-,0.05,Rain,Light Rain,160,2014-03-27 08:53:00
4:44 AM,37.0,36.0,96,29.75,4.0,SSE,10.4,19.6,0.02,Rain,Light Rain,150,2014-03-27 09:44:00
4:53 AM,37.0,36.0,96,29.76,4.0,SSE,10.4,-,0.03,Rain,Light Rain,150,2014-03-27 09:53:00
5:53 AM,37.0,36.0,96,29.72,4.0,SSE,15.0,-,0.02,Rain,Light Rain,150,2014-03-27 10:53:00
6:35 AM,37.9,36.0,93,29.70,6.0,SSE,12.7,-,0.00,,Overcast,160,2014-03-27 11:35:00
6:53 AM,37.9,36.0,93,29.71,7.0,SSE,13.8,-,0.00,,Overcast,150,2014-03-27 11:53:00
7:53 AM,37.9,36.0,93,29.70,4.0,SSE,12.7,-,N/A,,Overcast,160,2014-03-27 12:53:00
8:53 AM,39.0,36.0,89,29.68,3.0,SSE,11.5,-,0.03,Rain,Rain,160,2014-03-27 13:53:00
9:13 AM,39.9,37.0,89,29.66,4.0,SSE,13.8,-,0.02,Rain,Light Rain,160,2014-03-27 14:13:00
9:33 AM,42.1,37.0,82,29.66,10.0,SSE,17.3,23.0,0.02,,Overcast,160,2014-03-27 14:33:00
9:53 AM,43.0,37.9,82,29.66,10.0,South,15.0,-,0.02,,Overcast,170,2014-03-27 14:53:00
10:12 AM,43.0,37.9,82,29.64,10.0,South,15.0,-,N/A,,Overcast,170,2014-03-27 15:12:00
10:53 AM,44.1,39.0,82,29.63,10.0,SSE,15.0,-,N/A,,Overcast,160,2014-03-27 15:53:00
11:53 AM,46.9,41.0,80,29.60,10.0,South,19.6,25.3,N/A,,Overcast,170,2014-03-27 16:53:00
12:53 PM,48.0,39.9,74,29.57,10.0,South,21.9,28.8,N/A,,Overcast,180,2014-03-27 17:53:00
1:53 PM,48.9,41.0,74,29.53,10.0,South,15.0,23.0,N/A,,Overcast,170,2014-03-27 18:53:00
2:53 PM,51.1,43.0,74,29.51,10.0,South,12.7,-,N/A,,Overcast,170,2014-03-27 19:53:00
3:53 PM,51.1,46.9,86,29.49,6.0,South,13.8,-,0.00,Rain,Light Rain,180,2014-03-27 20:53:00
4:53 PM,53.1,46.9,80,29.44,10.0,SSE,15.0,-,0.00,,Overcast,160,2014-03-27 21:53:00
5:53 PM,54.0,46.9,77,29.41,10.0,SSE,18.4,-,N/A,,Overcast,160,2014-03-27 22:53:00
6:46 PM,54.0,48.0,80,29.40,10.0,South,18.4,29.9,0.00,Rain,Light Rain,170,2014-03-27 23:46:00
6:53 PM,53.1,48.0,83,29.43,10.0,South,18.4,26.5,0.00,Rain-Thunderstorm,Light Rain,190,2014-03-27 23:53:00
7:04 PM,53.1,48.9,86,29.42,3.0,South,15.0,-,0.06,Rain-Thunderstorm,Heavy Thunderstorms and Rain,180,2014-03-28 00:04:00
7:22 PM,52.0,51.1,97,29.39,8.0,South,13.8,-,0.08,Rain,Light Rain,170,2014-03-28 00:22:00
7:53 PM,52.0,48.9,89,29.40,10.0,South,13.8,25.3,0.08,,Overcast,190,2014-03-28 00:53:00
8:02 PM,52.0,48.9,89,29.40,10.0,SSW,13.8,21.9,N/A,,Overcast,200,2014-03-28 01:02:00
8:21 PM,52.0,48.9,89,29.40,10.0,South,18.4,27.6,N/A,,Overcast,190,2014-03-28 01:21:00
8:31 PM,52.0,48.9,89,29.40,10.0,SSW,16.1,26.5,N/A,,Overcast,200,2014-03-28 01:31:00
8:53 PM,53.1,48.9,86,29.41,10.0,SSW,17.3,27.6,N/A,,Overcast,200,2014-03-28 01:53:00
9:53 PM,46.9,42.1,83,29.49,10.0,West,23.0,40.3,N/A,,Overcast,260,2014-03-28 02:53:00
10:53 PM,44.1,39.9,85,29.52,10.0,WSW,21.9,32.2,N/A,,Overcast,250,2014-03-28 03:53:00
11:19 PM,44.1,39.9,85,29.53,10.0,WSW,21.9,29.9,N/A,,Overcast,250,2014-03-28 04:19:00
11:53 PM,43.0,39.9,89,29.57,6.0,WSW,19.6,29.9,N/A,,Overcast,250,2014-03-28 04:53:00